FENGYUN 1C DEB, 30392

Orbit data source: Space-Track

FENGYUN 1C DEB, 30392 is space debris in SSO originally from a launch on Mon, 10 May 1999 UTC launched from the Taiyaun Space Center, China (TSC). Fengyun 1C debris stems from the Chinese weather satellite Fengyun-1C, which was intentionally destroyed by a Chinese anti-satellite missile in 2007. This event dramatically increased the amount of space debris, with thousands of trackable fragments posing hazards to satellites and human spaceflight. The Fengyun 1C debris cloud has become a focal point in discussions about space sustainability and the need for international regulations to prevent the creation of new debris.

Loading next visibility...
Identifier
30392, 1999-025ADF
Orbit
SSO
Country
Flag of CNCN / PRC
Related business
Manufacturer
Unknown
Mission
Spacecraft
Bus & Motor
Unknown
Mass
Unknown
Launch date (UTC)
1999-05-10 (27 years ago)
Launch vehicle
Unknown
Launch site
Taiyaun Space Center, China (TSC)
Object type
Payload
Rocket body
Debris
Shape & HBR
Unknown shape, 0.1 m
Radar Cross Section
Medium (>0.1 m² and <1 m²)

Expand to show TLE details & history
Last TLE update: 9 hours ago

TLE from 9 hours ago
0 FENGYUN 1C DEB
1 30392U 99025ADF 26151.00245360  .00000896  00000-0  47871-3 0  9990
2 30392  98.7723 169.9929 0178994 239.1800 149.2878 14.07851188990528
Epoch: 2026-05-31T00:03Z
TLE epoch observation values (Epoch: 2026-05-31T00:03:31.991Z)
Latitude
29.16375°
Longitude
-84.31527°
Altitude
982.439 km
Speed
7.306 km/s
True Right ascension
11h 00m 18s
True Declination
29° 01' 20"
Sunlit
Object was in daylight at epoch
Visualization orbit readout
Latitude
Unknown
Longitude
Unknown
Altitude
Unknown
Speed
Unknown
Apparent Right ascension
Unknown
Apparent Declination
Unknown
Sunlit
N/A
Visualization observer readout
Local Sidereal Time
18:57:46
Azimuth
Unknown
Elevation
Unknown
Doppler factor
Unknown
Orbital elements
Apogee altitude
993.539 km
Perigee altitude
734.282 km
Semi-major axis
7,242.048 km
Eccentricity
0.0179
Inclination
98.7723°
RAAN
169.9929°
Arg. of periapsis
239.18°
True anomaly
150.31552°
Mean anomaly
149.2878°
Eccentric anomaly
149.80362°
Mean motion
3.52169 °/min
Orbital period
102.22 mins
BSTAR
0.00047871
Loading maneuver chart data...
Computing Atmospheric mass density...
Loading historical data...
Loading historical data...
Loading historical data...
Loading historical data...
Loading historical data...
Loading historical data...
Loading historical data...

Documentation

Showing up to 5 results
|